Location: Bele?ti
(46.1667°N, 22.7167°E)
Time: 05:31:39
(UTC+00:00)

Daily predictions for brighter satellites

Satellite Brightness Start Highest point End
(mag) Time Altitude Azimuth Time Altitude Azimuth Time Altitude Azimuth
Helios 1A 3.5 00:05:56 34° SW 00:07:02 41° W 00:11:01 10° NNW
Aureole 3 4.4 00:06:17 10° NW 00:09:14 26° W 00:09:43 25° WSW
Cosmos 405 Rocket 2.7 00:08:13 35° S 00:09:36 68° E 00:13:17 10° NNE
Cosmos 2058 3.5 00:07:46 25° SSE 00:09:51 50° E 00:13:49 10° NNE
OPS 6432 4.2 00:09:16 10° NW 00:12:19 88° WSW 00:15:27 14° SE
Cosmos 2237 Rocket 3.8 00:08:47 10° WSW 00:13:18 25° NW 00:17:56 10° N
NOSS 8 (F) 4.4 00:12:55 44° S 00:13:38 58° SE 00:16:35 10° NE
USA 281 4.3 00:09:38 10° SE 00:15:49 46° NE 00:22:02 10° NNW
SeaSat 1 4.0 00:13:30 10° NE 00:17:34 25° ESE 00:20:56 13° SSE
Cosmos 1763 Rocket 3.6 00:14:54 26° S 00:17:42 66° ESE 00:22:46 10° NNE
ARGOS Delta rocket 4.1 00:13:08 10° N 00:18:37 88° W 00:21:59 25° SSW
Cosmos-2242 4.1 00:15:47 10° NNW 00:19:40 31° W 00:21:03 26° SW
Cosmos 1242 Rocket 4.1 00:17:40 10° N 00:20:57 33° ENE 00:24:14 10° SE
Meteor 1-29 4.1 00:20:06 10° NNE 00:23:18 36° E 00:25:09 20° SSE
NOSS 2-3 (D) 3.5 00:22:32 30° SSW 00:24:33 84° SE 00:29:21 10° NE
Helios 1B rocket 2.4 00:21:32 10° NNE 00:25:40 83° ESE 00:27:47 28° S
Cosmos 2369 Rocket 2.2 00:20:11 10° NNW 00:25:57 86° ENE 00:31:40 10° SSE
CZ-2D R/B 2.0 00:21:29 10° NNE 00:26:44 81° WNW 00:29:56 24° SSW
Resurs 1-4 Rocket 2.1 00:23:10 10° N 00:28:29 76° WNW 00:31:49 24° SSW
Cosmos 1869 4.2 00:24:51 10° NNW 00:28:35 35° W 00:29:58 27° SW
EP 2 4.5 00:28:36 41° SW 00:29:31 89° NW 00:32:33 10° NE
SL-19 R/B 4.3 00:24:20 10° NNE 00:29:33 70° ESE 00:33:17 20° S
SL-4 R/B 2.2 00:27:43 18° W 00:30:22 58° NNW 00:33:52 10° ENE
Cosmos 1825 2.2 00:29:22 31° SSW 00:31:01 68° W 00:34:48 10° N
ADEOS Rocket 3.6 00:24:16 10° SSE 00:31:47 73° ENE 00:38:40 10° N
CREW DRAGON DEMO-1 DEB 4.2 00:32:17 20° SE 00:32:17 20° SE 00:33:58 10° E
Lacrosse 5 rocket 3.9 00:31:38 10° NW 00:33:49 15° N 00:36:00 10° NNE
Cosmos 2297 4.5 00:33:27 10° NW 00:38:25 33° WSW 00:41:08 21° SSW
NOSS 8 (H) 4.3 00:37:33 32° SSW 00:38:47 60° SE 00:41:42 10° NE
Aureole 3 Rocket 3.3 00:36:14 10° N 00:39:37 56° E 00:43:57 10° SSE
NOSS 2-3 (C) 3.8 00:39:20 23° SW 00:41:54 67° NW 00:46:47 10° NE
Exosat Rocket 4.1 00:37:19 20° SSW 00:42:26 76° WNW 00:47:55 10° NNE
Cosmos 1076 Rocket 4.0 00:39:20 16° SSE 00:42:32 55° E 00:46:42 10° NNE
Cosmos 1633 3.5 00:40:11 15° SSE 00:42:45 40° E 00:46:05 10° NNE
Cosmos 1437 Rocket 2.7 00:39:26 10° NNW 00:43:21 66° W 00:45:46 21° S
UNK 4.0 00:40:57 22° SSW 00:43:41 49° W 00:48:11 10° NNW
Cosmos 2221 2.5 00:44:36 10° NNW 00:48:54 65° W 00:51:59 18° S
Lacrosse 4 Rocket 4.1 00:46:34 10° N 00:49:50 22° NE 00:53:03 10° E
AQUA 3.9 00:45:24 10° N 00:50:10 72° WNW 00:53:29 20° SSW
SJ 16-02 2.9 00:47:14 10° NW 00:50:16 19° W 00:51:20 17° WSW
Cosmos 1656 Rocket 3.7 00:46:15 10° NNW 00:52:00 88° ENE 00:57:40 10° SSE
Cosmos 1898 Rocket 3.5 00:47:09 10° NNW 00:52:20 61° WSW 00:57:27 10° S
ADEOS II 2.1 00:47:03 10° NNE 00:52:20 84° ESE 00:56:36 16° SSW
Cosmos 2151 3.9 00:53:05 10° SSE 00:57:07 44° E 01:01:08 10° NNE
Cosmos 990 Rocket 4.4 00:53:42 10° NW 00:58:37 43° WSW 01:02:41 14° S
MINOTAUR 4 R/B 4.3 00:57:30 19° S 00:59:45 50° W 01:03:13 10° NNW
Cosmos 1606 2.6 00:56:06 10° NNW 00:59:58 78° W 01:03:20 13° S
Cosmos 841 Rocket 3.6 00:55:55 16° S 01:00:01 73° ESE 01:05:10 10° NNE
ATLAS 5 CENTAUR R/B 3.4 00:58:46 10° SSE 01:01:34 19° ESE 01:04:32 10° ENE
Cosmos 1937 Rocket 3.5 00:56:51 10° NNW 01:02:09 70° WSW 01:07:25 10° S
Cosmos 1570 Rocket 4.4 01:05:10 12° S 01:09:57 61° ESE 01:15:06 10° NNE
Cosmos 1437 2.3 01:08:44 10° N 01:11:33 83° E 01:14:20 10° SSE
USA 229 DEB 3.9 01:09:31 14° SW 01:15:10 64° NW 01:22:02 10° NE
USA 229 3.9 01:09:35 14° SW 01:15:13 65° NW 01:22:05 10° NE
Cosmos 540 Rocket 3.5 01:11:08 16° SSW 01:15:17 72° WNW 01:20:25 10° NNE
NOSS 2-2 (E) 4.1 01:12:43 13° S 01:15:24 35° ESE 01:18:46 10° NE
Meteor 1-28 Rocket 3.2 01:11:53 10° S 01:15:38 63° W 01:19:24 10° NNW
BREEZE-M DEB (TANK) 2.4 01:14:48 10° WNW 01:17:11 43° N 01:19:33 10° E
Cosmos 1814 Rocket 4.2 01:12:43 12° S 01:17:35 71° ESE 01:22:46 10° NNE
IDEFIX/ARIANE 42P 2.7 01:12:22 10° NNE 01:17:40 76° ESE 01:22:52 10° S
CZ-4C R/B 3.0 01:14:46 10° SSE 01:18:17 84° ENE 01:21:45 10° NNW
Cosmos 1782 4.4 01:15:40 10° N 01:19:22 35° ENE 01:23:03 10° SE
Cosmos 1943 3.4 01:20:06 14° SW 01:24:58 63° WNW 01:30:36 10° NNE
Cosmos 1933 3.6 01:21:22 10° N 01:25:27 74° E 01:29:31 10° SSE
Cosmos 1553 Rocket 4.3 01:19:10 10° N 01:25:32 72° E 01:31:45 10° SSE
USA 290 3.1 01:23:26 10° S 01:26:33 45° ESE 01:29:40 10° NE
SL-16 R/B 3.6 01:22:25 13° SW 01:26:48 26° W 01:31:54 10° NW
Cosmos 1603 4.0 01:22:06 13° SW 01:27:06 59° WNW 01:32:42 10° NNE
NOSS 2-2 (C) 4.1 01:24:30 11° S 01:27:34 36° ESE 01:30:55 10° NE
NOSS 3-1 (C) 4.4 01:22:35 10° WSW 01:27:44 37° NW 01:33:47 10° NNE
ASTEX 1 3.8 01:23:16 10° SSE 01:28:12 69° E 01:33:08 10° N
Cosmos 2098 Rocket 4.5 01:23:20 13° SW 01:28:28 38° WNW 01:33:17 10° N
X-37B 0.7 01:28:10 12° WSW 01:31:01 60° SSE 01:34:09 10° E
ARIANE 5 R/B 3.1 01:26:38 10° NNE 01:31:32 54° E 01:36:25 10° S
Cosmos 2292 Rocket 3.1 01:28:45 10° S 01:32:04 64° E 01:35:02 10° NNE
NOSS 3-1 (A) 3.9 01:29:35 10° WSW 01:34:53 50° NW 01:41:12 10° NE
Cosmos 1151 Rocket 3.8 01:35:32 10° N 01:39:45 54° ENE 01:43:55 10° SSE
IRIDIUM 106 4.3 01:35:25 10° N 01:40:40 82° W 01:45:53 10° S
Cosmos 1943 Rocket 4.0 01:39:34 10° WNW 01:41:38 12° W 01:43:43 10° WSW
IRS-P3 4.2 01:36:23 10° NNE 01:41:46 84° ESE 01:47:05 10° SSW
Cosmos 2026 Rocket 4.3 01:37:49 10° SSW 01:43:54 57° WNW 01:50:08 10° N
SL-16 R/B 4.4 01:47:22 10° WNW 01:50:37 15° NW 01:53:53 10° N
SeaSat 1 2.9 01:50:31 10° NNE 01:55:18 51° NW 02:00:03 10° SW
Cosmos 1242 Rocket 4.3 01:53:13 10° NW 01:55:29 16° W 01:57:45 10° SW
Cosmos 372 Rocket 4.5 01:51:06 10° NW 01:55:59 41° WSW 02:00:53 10° S
USA 281 3.7 01:54:14 10° S 02:00:21 41° WSW 02:06:31 10° NW
MSX 4.0 01:56:48 10° N 02:02:32 66° WNW 02:08:13 10° SSW
